When you browse on this site, cookies collect data to enhance your experience and personalize the content and advertising you see.
Visit our Privacy Policy to learn more. By continuing to use the site, you agree to this use of cookies and data.
  • In Romania
  • List of Countries
  • For 7 days
  • Water Temperature
  • Weather Map
  • Weather Widgets
  • user-avatar
    Login

    Hourly Weather Santiago de Compostela

    Today, 20 November, Wednesday

    Time Temperature Precipitation Wind Pressure Humidity
    00:00 +8°C° 0 mm 1 mps 735 mmHg 97%
    01:00 +8°C° 0 mm 1 mps 734 mmHg 97%
    02:00 +8°C° 0 mm 1 mps 734 mmHg 97%
    03:00 +8°C° 0 mm 1 mps 733 mmHg 97%
    04:00 +7°C° 0 mm 1 mps 733 mmHg 97%
    05:00 +8°C° 0 mm 1 mps 733 mmHg 98%
    06:00 +7°C° 0 mm 2 mps 732 mmHg 97%
    07:00 +8°C° 0 mm 2 mps 732 mmHg 95%
    08:00 +8°C° 0 mm 2 mps 732 mmHg 94%
    09:00 +8°C° 0.7 mm 2 mps 732 mmHg 94%
    10:00 +9°C° 0.7 mm 2 mps 732 mmHg 93%
    11:00 +9°C° 0.7 mm 2 mps 732 mmHg 92%
    12:00 +9°C° 0.4 mm 2 mps 731 mmHg 92%
    13:00 +9°C° 0.4 mm 2 mps 731 mmHg 92%
    14:00 +9°C° 0.4 mm 2 mps 730 mmHg 92%
    15:00 +9°C° 0.3 mm 2 mps 730 mmHg 93%
    16:00 +8°C° 0.3 mm 2 mps 730 mmHg 95%
    17:00 +8°C° 0.3 mm 1 mps 730 mmHg 96%
    18:00 +8°C° 0.4 mm 1 mps 731 mmHg 96%
    19:00 +8°C° 0.4 mm 1 mps 731 mmHg 96%
    20:00 +8°C° 0.4 mm 1 mps 731 mmHg 97%
    21:00 +8°C° 0.5 mm 1 mps 731 mmHg 97%
    22:00 +8°C° 0.5 mm 1 mps 731 mmHg 97%
    23:00 +8°C° 0.5 mm 1 mps 731 mmHg 97%

    Tomorrow, 21 November, Thursday

    Time Temperature Precipitation Wind Pressure Humidity
    00:00 +7°C° 0.1 mm 1 mps 731 mmHg 97%
    01:00 +7°C° 0.1 mm 1 mps 731 mmHg 97%
    02:00 +7°C° 0.1 mm 1 mps 731 mmHg 97%
    03:00 +7°C° 0.3 mm 1 mps 731 mmHg 97%
    04:00 +7°C° 0.3 mm 1 mps 731 mmHg 97%
    05:00 +6°C° 0.3 mm 2 mps 731 mmHg 97%
    06:00 +6°C° 0.2 mm 2 mps 732 mmHg 96%
    07:00 +8°C° 0.2 mm 1 mps 732 mmHg 96%
    08:00 +8°C° 0.2 mm 1 mps 732 mmHg 95%
    09:00 +8°C° 0.2 mm 2 mps 732 mmHg 92%
    10:00 +9°C° 0.2 mm 2 mps 732 mmHg 88%
    11:00 +11°C° 0.2 mm 3 mps 732 mmHg 84%
    12:00 +10°C° 0.3 mm 3 mps 732 mmHg 85%
    13:00 +10°C° 0.3 mm 2 mps 732 mmHg 85%
    14:00 +10°C° 0.3 mm 2 mps 731 mmHg 86%
    15:00 +9°C° 0.2 mm 2 mps 731 mmHg 89%
    16:00 +9°C° 0.2 mm 2 mps 731 mmHg 92%
    17:00 +8°C° 0.2 mm 2 mps 731 mmHg 95%
    18:00 +8°C° 0 mm 2 mps 730 mmHg 95%
    19:00 +8°C° 0 mm 2 mps 730 mmHg 95%
    20:00 +8°C° 0 mm 2 mps 729 mmHg 95%
    21:00 +8°C° 2 mm 2 mps 728 mmHg 95%
    22:00 +8°C° 2 mm 3 mps 726 mmHg 96%
    23:00 +8°C° 2 mm 3 mps 725 mmHg 97%

    Day after tomorrow, 22 November, Friday

    Time Temperature Precipitation Wind Pressure Humidity
    00:00 +9°C° 4.1 mm 3 mps 724 mmHg 97%
    01:00 +9°C° 4.1 mm 3 mps 723 mmHg 97%
    02:00 +10°C° 4.1 mm 3 mps 722 mmHg 97%
    03:00 +10°C° 3 mm 3 mps 721 mmHg 97%
    04:00 +11°C° 3 mm 3 mps 719 mmHg 97%
    05:00 +12°C° 3 mm 4 mps 718 mmHg 98%
    06:00 +11°C° 3.7 mm 4 mps 718 mmHg 96%
    07:00 +11°C° 3.7 mm 4 mps 717 mmHg 94%
    08:00 +10°C° 3.7 mm 4 mps 717 mmHg 92%
    09:00 +11°C° 0.6 mm 4 mps 717 mmHg 92%
    10:00 +11°C° 0.6 mm 4 mps 717 mmHg 92%
    11:00 +11°C° 0.6 mm 4 mps 717 mmHg 92%
    12:00 +11°C° 0.6 mm 4 mps 717 mmHg 92%
    13:00 +11°C° 0.6 mm 4 mps 717 mmHg 92%
    14:00 +10°C° 0.6 mm 5 mps 717 mmHg 91%
    15:00 +10°C° 1 mm 5 mps 718 mmHg 92%
    16:00 +9°C° 1 mm 5 mps 719 mmHg 93%
    17:00 +9°C° 1 mm 5 mps 719 mmHg 94%
    18:00 +8°C° 1.4 mm 5 mps 721 mmHg 93%
    19:00 +8°C° 1.4 mm 5 mps 722 mmHg 92%
    20:00 +7°C° 1.4 mm 4 mps 724 mmHg 91%
    21:00 +7°C° 0.2 mm 4 mps 725 mmHg 92%
    22:00 +7°C° 0.2 mm 3 mps 725 mmHg 92%
    23:00 +5°C° 0.2 mm 3 mps 726 mmHg 92%

    23 November, Saturday

    Time Temperature Precipitation Wind Pressure Humidity
    00:00 +5°C° 0.1 mm 3 mps 727 mmHg 92%
    01:00 +6°C° 0.1 mm 2 mps 728 mmHg 93%
    02:00 +6°C° 0.1 mm 2 mps 728 mmHg 93%
    03:00 +6°C° 0.1 mm 2 mps 729 mmHg 93%
    04:00 +6°C° 0.1 mm 2 mps 729 mmHg 94%
    05:00 +6°C° 0.1 mm 2 mps 730 mmHg 94%
    06:00 +7°C° 0.2 mm 2 mps 731 mmHg 93%
    07:00 +8°C° 0.2 mm 2 mps 731 mmHg 93%
    08:00 +9°C° 0.2 mm 2 mps 732 mmHg 93%
    09:00 +9°C° 0.4 mm 3 mps 733 mmHg 90%
    10:00 +10°C° 0.4 mm 3 mps 733 mmHg 87%
    11:00 +11°C° 0.4 mm 4 mps 734 mmHg 84%
    12:00 +11°C° 0.3 mm 4 mps 734 mmHg 84%
    13:00 +11°C° 0.3 mm 4 mps 734 mmHg 85%
    14:00 +11°C° 0.3 mm 3 mps 734 mmHg 85%
    15:00 +10°C° 0.1 mm 3 mps 735 mmHg 88%
    16:00 +9°C° 0.1 mm 2 mps 736 mmHg 91%
    17:00 +8°C° 0.1 mm 2 mps 736 mmHg 95%
    18:00 +7°C° 0.1 mm 2 mps 737 mmHg 95%
    19:00 +8°C° 0.1 mm 1 mps 737 mmHg 95%
    20:00 +8°C° 0.1 mm 1 mps 738 mmHg 96%
    21:00 +8°C° 0.1 mm 1 mps 738 mmHg 96%
    22:00 +8°C° 0.1 mm 1 mps 739 mmHg 96%
    23:00 +8°C° 0.1 mm 1 mps 739 mmHg 96%

    24 November, Sunday

    Time Temperature Precipitation Wind Pressure Humidity
    00:00 +8°C° 0 mm 1 mps 739 mmHg 96%
    01:00 +8°C° 0 mm 1 mps 739 mmHg 96%
    02:00 +8°C° 0 mm 1 mps 739 mmHg 96%
    03:00 +7°C° 0 mm 1 mps 739 mmHg 96%
    04:00 +7°C° 0 mm 1 mps 740 mmHg 96%
    05:00 +7°C° 0 mm 1 mps 740 mmHg 96%
    06:00 +7°C° 0 mm 1 mps 740 mmHg 95%
    07:00 +8°C° 0 mm 1 mps 740 mmHg 94%
    08:00 +9°C° 0 mm 1 mps 741 mmHg 93%
    09:00 +8°C° 0 mm 2 mps 741 mmHg 90%
    10:00 +9°C° 0 mm 2 mps 741 mmHg 87%
    11:00 +10°C° 0 mm 3 mps 741 mmHg 84%
    12:00 +10°C° 0 mm 3 mps 740 mmHg 85%
    13:00 +10°C° 0 mm 3 mps 740 mmHg 86%
    14:00 +10°C° 0 mm 3 mps 740 mmHg 87%
    15:00 +10°C° 0.1 mm 3 mps 740 mmHg 88%
    16:00 +10°C° 0.1 mm 3 mps 740 mmHg 90%
    17:00 +9°C° 0.1 mm 3 mps 740 mmHg 91%
    18:00 +10°C° 0.3 mm 2 mps 740 mmHg 92%
    19:00 +10°C° 0.3 mm 2 mps 740 mmHg 93%
    20:00 +10°C° 0.3 mm 2 mps 740 mmHg 94%
    21:00 +10°C° 0.4 mm 2 mps 740 mmHg 95%
    22:00 +10°C° 0.4 mm 2 mps 740 mmHg 96%
    23:00 +10°C° 0.4 mm 2 mps 740 mmHg 96%

    25 November, Monday

    Time Temperature Precipitation Wind Pressure Humidity
    00:00 +10°C° 0.6 mm 2 mps 740 mmHg 96%
    01:00 +12°C° 0.6 mm 2 mps 740 mmHg 97%
    02:00 +12°C° 0.6 mm 2 mps 740 mmHg 97%
    03:00 +12°C° 0.5 mm 2 mps 740 mmHg 97%
    04:00 +13°C° 0.5 mm 2 mps 740 mmHg 97%
    05:00 +13°C° 0.5 mm 2 mps 740 mmHg 97%
    06:00 +13°C° 0.1 mm 2 mps 740 mmHg 97%
    07:00 +14°C° 0.1 mm 2 mps 741 mmHg 97%
    08:00 +14°C° 0.1 mm 2 mps 741 mmHg 97%
    09:00 +14°C° 0.1 mm 2 mps 741 mmHg 96%
    10:00 +15°C° 0.1 mm 2 mps 741 mmHg 94%
    11:00 +15°C° 0.1 mm 2 mps 742 mmHg 93%
    12:00 +15°C° 0.1 mm 2 mps 741 mmHg 92%
    13:00 +15°C° 0.1 mm 2 mps 741 mmHg 92%
    14:00 +15°C° 0.1 mm 2 mps 741 mmHg 91%
    15:00 +15°C° 0.3 mm 1 mps 741 mmHg 94%
    16:00 +14°C° 0.3 mm 1 mps 741 mmHg 96%
    17:00 +14°C° 0.3 mm 1 mps 741 mmHg 98%
    18:00 +13°C° 0.1 mm 1 mps 741 mmHg 98%
    19:00 +13°C° 0.1 mm 1 mps 741 mmHg 98%
    20:00 +13°C° 0.1 mm 1 mps 741 mmHg 98%
    21:00 +13°C° 0.1 mm 1 mps 741 mmHg 97%
    22:00 +13°C° 0.1 mm 1 mps 741 mmHg 96%
    23:00 +12°C° 0.1 mm 1 mps 741 mmHg 95%
    Show more